COSMOS 1818 COOLANT, 36949

Orbit data source: Space-Track

COSMOS 1818 COOLANT, 36949 is space debris in LEO originally from a launch on Sun, 01 Feb 1987 UTC launched from the Tyuratam Missile And Space Complex (TTMTR). Debris objects in space refer to the collection of defunct objects orbiting the Earth. Examples of debris include non-operational satellites, rocket bodies, and fragments generated from explosions, collisions, or faulty payload assembly.

Loading next visibility...
Identifier
36949, 1987-011AD
Orbit
LEO
Country
Flag of CISCIS
Related business
Manufacturer
Unknown
Mission
Spacecraft
Bus & Motor
Unknown
Mass
Unknown
Launch date (UTC)
1987-02-01 (39 years ago)
Launch vehicle
Unknown
Launch site
Tyuratam Missile And Space Complex (TTMTR)
Object type
Payload
Rocket body
Debris
Shape & HBR
Unknown shape, 0.1 m
Radar Cross Section
Small (<0.1 m²)

Expand to show TLE details & history
Last TLE update: 2 weeks ago

TLE from 2 weeks ago
0 COSMOS 1818 COOLANT
1 36949U 87011AD  26162.35936786  .00000691  00000-0  24709-3 0  9993
2 36949  65.0081 195.8339 0019680 286.6432  73.2496 14.40749514343107
Epoch: 2026-06-11T08:37Z
TLE epoch observation values (Epoch: 2026-06-11T08:37:29.383Z)
Latitude
-0.00003°
Longitude
166.75716°
Altitude
753.983 km
Speed
7.48 km/s
True Right ascension
13h 03m 20s
True Declination
0° 00' 00"
Sunlit
Object was in daylight at epoch
Visualization orbit readout
Latitude
Unknown
Longitude
Unknown
Altitude
Unknown
Speed
Unknown
Apparent Right ascension
Unknown
Apparent Declination
Unknown
Sunlit
N/A
Visualization observer readout
Local Sidereal Time
23:08:05
Azimuth
Unknown
Elevation
Unknown
Doppler factor
Unknown
Orbital elements
Apogee altitude
768.631 km
Perigee altitude
740.557 km
Semi-major axis
7,132.731 km
Eccentricity
0.00197
Inclination
65.0081°
RAAN
195.8339°
Arg. of periapsis
286.6432°
True anomaly
73.4657°
Mean anomaly
73.2496°
Eccentric anomaly
73.35763°
Mean motion
3.60296 °/min
Orbital period
99.92 mins
BSTAR
0.00024709
Loading maneuver chart data...
Computing Atmospheric mass density...

Documentation

Showing up to 5 results
|